TimeCDT,TemperatureF,Dew PointF,Humidity,Sea Level PressureIn,VisibilityMPH,Wind Direction,Wind SpeedMPH,Gust SpeedMPH,PrecipitationIn,Events,Conditions,WindDirDegrees,DateUTC
12:53 AM,46.0,33.1,61,29.99,10.0,NNE,24.2,31.1,N/A,,Overcast,20,2011-11-02 05:53:00
1:53 AM,45.0,32.0,60,30.00,10.0,NNE,27.6,39.1,N/A,,Overcast,20,2011-11-02 06:53:00
2:53 AM,45.0,30.9,58,30.04,10.0,NNE,28.8,36.8,N/A,,Overcast,20,2011-11-02 07:53:00
3:53 AM,45.0,28.0,52,30.04,10.0,NNE,31.1,41.4,N/A,,Overcast,20,2011-11-02 08:53:00
4:53 AM,43.0,30.0,60,30.04,10.0,NNE,32.2,43.7,N/A,,Overcast,30,2011-11-02 09:53:00
5:53 AM,42.1,30.9,65,30.04,10.0,NNE,32.2,47.2,N/A,,Overcast,20,2011-11-02 10:53:00
6:53 AM,42.1,30.0,62,30.11,10.0,NNE,25.3,47.2,N/A,Thunderstorm,Overcast,30,2011-11-02 11:53:00
7:23 AM,39.2,30.2,70,30.08,10.0,NNE,25.3,36.8,0.02,Rain-Thunderstorm,Light Rain,30,2011-11-02 12:23:00
7:53 AM,36.0,32.0,86,30.13,6.0,NNE,24.2,31.1,0.06,Snow-Thunderstorm,Light Snow,20,2011-11-02 12:53:00
8:07 AM,35.6,33.8,93,30.12,7.0,NNE,24.2,35.7,0.00,Snow,Light Snow,20,2011-11-02 13:07:00
8:23 AM,35.6,33.8,93,30.14,5.0,North,19.6,26.5,0.01,Snow,Light Snow,10,2011-11-02 13:23:00
8:53 AM,35.1,33.1,92,30.20,3.0,North,25.3,34.5,0.04,Snow,Light Snow,360,2011-11-02 13:53:00
9:09 AM,33.8,32.0,93,30.18,2.0,North,20.7,-,0.02,Snow,Light Snow,360,2011-11-02 14:09:00
9:16 AM,33.8,32.0,93,30.18,1.5,North,19.6,28.8,0.02,Snow,Light Snow,360,2011-11-02 14:16:00
9:31 AM,33.8,32.0,93,30.20,1.0,North,25.3,32.2,0.04,Snow,Light Snow,10,2011-11-02 14:31:00
9:53 AM,33.1,32.0,96,30.24,1.0,North,19.6,-,0.05,Snow,Light Snow,360,2011-11-02 14:53:00
10:18 AM,33.8,32.0,93,30.22,0.8,North,21.9,28.8,0.02,Snow,Light Snow,360,2011-11-02 15:18:00
10:38 AM,33.8,32.0,93,30.22,1.0,North,21.9,-,0.03,Snow,Light Snow,10,2011-11-02 15:38:00
10:53 AM,34.0,32.0,92,30.26,1.5,North,21.9,28.8,0.03,Snow,Light Snow,360,2011-11-02 15:53:00
11:09 AM,33.8,32.0,93,30.23,2.0,North,24.2,34.5,0.01,Snow,Light Snow,360,2011-11-02 16:09:00
11:23 AM,33.8,32.0,93,30.23,2.0,North,27.6,33.4,0.01,Snow,Light Snow,360,2011-11-02 16:23:00
11:36 AM,33.8,32.0,93,30.24,3.0,North,21.9,33.4,0.01,Snow,Light Snow,360,2011-11-02 16:36:00
11:53 AM,35.1,33.1,92,30.28,6.0,North,24.2,32.2,0.02,Snow,Light Snow,360,2011-11-02 16:53:00
12:36 PM,35.6,33.8,93,30.26,9.0,North,26.5,33.4,0.00,,Overcast,360,2011-11-02 17:36:00
12:53 PM,36.0,33.1,89,30.29,10.0,North,23.0,-,0.00,,Overcast,360,2011-11-02 17:53:00
1:12 PM,35.6,33.8,93,30.26,10.0,North,26.5,32.2,0.00,,Overcast,360,2011-11-02 18:12:00
1:49 PM,35.6,33.8,93,30.25,4.0,North,21.9,29.9,0.00,Snow,Light Snow,350,2011-11-02 18:49:00
1:53 PM,35.1,33.1,92,30.29,4.0,North,23.0,-,0.00,Snow,Light Snow,350,2011-11-02 18:53:00
2:37 PM,35.6,33.8,93,30.27,3.0,North,25.3,36.8,0.02,Snow,Light Snow,350,2011-11-02 19:37:00
2:39 PM,35.6,33.8,93,30.27,2.5,North,31.1,36.8,0.02,Snow,Light Snow,350,2011-11-02 19:39:00
2:48 PM,35.6,32.0,87,30.28,2.0,North,31.1,42.6,0.02,Snow,Light Snow,360,2011-11-02 19:48:00
2:53 PM,34.0,32.0,92,30.32,1.2,North,28.8,42.6,0.02,Snow,Light Snow,360,2011-11-02 19:53:00
3:02 PM,33.8,30.2,87,30.30,0.8,North,29.9,41.4,0.00,Snow,Light Snow,360,2011-11-02 20:02:00
3:25 PM,33.8,30.2,87,30.31,1.0,North,32.2,42.6,0.00,Snow,Light Snow,360,2011-11-02 20:25:00
3:34 PM,33.8,30.2,87,30.31,1.0,North,26.5,39.1,0.00,Snow,Light Snow,360,2011-11-02 20:34:00
3:53 PM,33.1,30.9,92,30.35,1.0,North,18.4,31.1,0.00,Snow,Light Snow,360,2011-11-02 20:53:00
3:55 PM,33.8,32.0,93,30.31,1.0,North,19.6,31.1,0.00,Snow,Light Snow,350,2011-11-02 20:55:00
4:15 PM,33.8,30.2,87,30.33,0.8,North,29.9,39.1,0.00,Snow,Light Snow,360,2011-11-02 21:15:00
4:27 PM,33.8,30.2,87,30.34,1.5,North,21.9,40.3,0.00,Snow,Light Snow,360,2011-11-02 21:27:00
4:39 PM,33.8,28.4,81,30.34,2.0,NNE,27.6,36.8,0.00,Snow,Light Snow,20,2011-11-02 21:39:00
5:53 PM,37.0,32.0,82,30.38,10.0,North,8.1,-,N/A,,Overcast,350,2011-11-02 22:53:00
6:53 PM,37.0,30.9,79,30.39,10.0,NW,9.2,-,N/A,,Overcast,320,2011-11-02 23:53:00
7:53 PM,35.1,30.0,82,30.42,10.0,NW,10.4,-,N/A,,Clear,310,2011-11-03 00:53:00
9:53 PM,34.0,25.0,70,30.44,10.0,NW,15.0,21.9,N/A,,Clear,320,2011-11-03 02:53:00
10:53 PM,33.1,24.1,70,30.45,10.0,NW,13.8,23.0,N/A,,Clear,320,2011-11-03 03:53:00
11:53 PM,32.0,24.1,73,30.45,10.0,NNW,13.8,-,N/A,,Clear,330,2011-11-03 04:53:00